Date String (YYYY-MM-DD hh:mm:ss) UTC,Instrument flags,absolute air pressure of the measurement (hPa),sample flow rate (lpm),inlet stack bypass flow (lpm),air temperature of the measurement (°C),ambient temperature measured by the external sensor (°C),aerosol sample conditioner tube jacket temperature (°C),OPC LED temperature (°C),internal box temperature (°C),relative humidity of the measurement (%),span deviation,mass concentration of particles derived from Lorenz-Mie calculation of OPC scattering (μg/m³),mass concentration of particles derived from Lorenz-Mie calculation of OPC scattering (μg/m³),mass concentration of particles derived from Lorenz-Mie calculation of OPC scattering (μg/m³)
DateTimeUTC,F1_M11,P_M11,Q1_M11,Q2_M11,T1_M11,T2_M11,T3_M11,T4_M11,T5_M11,U1_M11,ZSPAN_M11,X0_M11,X2_M11,X1_M11
2023-11-17 17:00:00,SystemResetWarning,0831.3,5.00,000.00,026.2,025.6,000.0,034.4,027.8,21.2,0000.4,0015.92,0009.47,0008.81
2023-11-17 17:01:00,SystemResetWarning,0831.3,4.99,000.00,026.3,025.7,000.0,034.4,027.8,21.3,0000.3,0016.11,0009.58,0008.90
2023-11-17 17:02:00,SystemResetWarning,0831.4,4.99,000.00,026.3,025.7,000.0,034.4,027.8,21.7,0000.4,0016.66,0009.67,0008.96
2023-11-17 17:03:00,SystemResetWarning,0831.3,5.01,000.00,026.3,025.7,000.0,034.4,027.9,21.9,0000.5,0016.67,0009.72,0009.03
2023-11-17 17:04:00,SystemResetWarning,0831.3,5.01,000.00,026.3,025.8,000.0,034.5,027.9,21.4,0000.6,0016.32,0009.74,0009.06
2023-11-17 17:05:00,SystemResetWarning,0831.3,5.00,000.00,026.4,025.8,000.0,034.5,027.9,20.9,0000.7,0015.78,0009.68,0009.02
2023-11-17 17:06:00,SystemResetWarning,0831.3,5.01,000.00,026.4,025.8,000.0,034.5,028.0,21.0,0001.0,0015.01,0009.57,0008.92
2023-11-17 17:07:00,SystemResetWarning,0831.3,5.00,000.00,026.4,025.9,000.0,034.5,028.0,21.5,0000.8,0014.36,0009.48,0008.84
2023-11-17 17:08:00,SystemResetWarning,0831.3,4.99,000.00,026.4,025.9,000.0,034.5,028.0,21.5,0000.0,0014.63,0009.42,0008.80
2023-11-17 17:09:00,SystemResetWarning,0831.4,4.99,000.00,026.4,025.9,000.0,034.6,028.0,21.3,0000.0,0014.60,0009.36,0008.77
2023-11-17 17:10:00,SystemResetWarning,0831.4,5.00,000.00,026.5,025.9,000.0,034.6,028.1,21.3,-000.1,0013.61,0009.27,0008.69
2023-11-17 17:11:00,SystemResetWarning,0831.4,5.01,000.00,026.5,026.0,000.0,034.6,028.1,21.2,-000.3,0013.44,0009.18,0008.62
2023-11-17 17:12:00,SystemResetWarning,0831.4,5.01,000.00,026.5,026.0,000.0,034.6,028.1,21.2,-000.1,0013.38,0009.10,0008.55
2023-11-17 17:13:00,SystemResetWarning,0831.3,5.00,000.00,026.6,026.0,000.0,034.7,028.2,21.0,-000.2,0013.01,0009.11,0008.51
2023-11-17 17:14:00,SystemResetWarning,0831.3,4.99,000.00,026.6,026.0,000.0,034.7,028.2,20.9,0000.0,0013.05,0009.09,0008.50
2023-11-17 17:15:00,SystemResetWarning,0831.3,5.00,000.00,026.6,026.1,000.0,034.7,028.2,20.5,-000.0,0012.83,0009.07,0008.47
2023-11-17 17:16:00,SystemResetWarning,0831.3,5.00,000.00,026.6,026.1,000.0,034.7,028.2,20.1,-000.5,0012.90,0009.07,0008.46
2023-11-17 17:17:00,SystemResetWarning,0831.3,4.99,000.00,026.7,026.1,000.0,034.7,028.2,20.2,-000.8,0013.04,0009.10,0008.47
2023-11-17 17:18:00,SystemResetWarning,0831.3,5.01,000.00,026.7,026.1,000.0,034.8,028.3,20.0,-000.2,0013.43,0009.10,0008.46
2023-11-17 17:19:00,SystemResetWarning,0831.3,5.01,000.00,026.7,026.2,000.0,034.8,028.3,20.0,0000.1,0013.40,0009.05,0008.39
2023-11-17 17:20:00,SystemResetWarning,0831.3,5.00,000.00,026.7,026.2,000.0,034.8,028.3,19.8,0000.3,0012.94,0008.93,0008.28
2023-11-17 17:21:00,SystemResetWarning,0831.4,5.00,000.00,026.8,026.2,000.0,034.8,028.3,20.3,0000.7,0013.22,0008.85,0008.19
2023-11-17 17:22:00,SystemResetWarning,0831.3,5.00,000.00,026.8,026.3,000.0,034.9,028.4,20.0,0000.8,0013.79,0008.80,0008.13
2023-11-17 17:23:00,SystemResetWarning,0831.3,5.00,000.00,026.8,026.3,000.0,034.9,028.4,20.3,0000.7,0013.61,0008.70,0008.06
2023-11-17 17:24:00,SystemResetWarning,0831.3,5.00,000.00,026.8,026.3,000.0,034.9,028.4,20.6,0000.7,0013.17,0008.53,0007.95
2023-11-17 17:25:00,SystemResetWarning,0831.3,5.00,000.00,026.9,026.3,000.0,035.0,028.4,20.4,0000.5,0012.78,0008.40,0007.84
2023-11-17 17:26:00,SystemResetWarning,0831.3,4.99,000.00,026.9,026.4,000.0,035.0,028.4,20.6,0000.8,0012.74,0008.33,0007.75
2023-11-17 17:27:00,SystemResetWarning,0831.3,5.00,000.00,026.9,026.4,000.0,035.0,028.5,20.3,0000.5,0012.69,0008.28,0007.70
2023-11-17 17:28:00,SystemResetWarning,0831.3,5.00,000.00,026.9,026.4,000.0,035.0,028.5,19.5,0000.0,0012.55,0008.19,0007.63
2023-11-17 17:29:00,SystemResetWarning,0831.3,5.00,000.00,027.0,026.5,000.0,035.1,028.5,18.8,0000.1,0012.14,0008.16,0007.62
2023-11-17 17:30:00,SystemResetWarning,0831.3,5.00,000.00,027.0,026.5,000.0,035.1,028.6,18.6,0002.0,0012.41,0008.24,0007.68
2023-11-17 17:31:00,SystemResetWarning,0831.2,5.00,000.00,027.0,026.5,000.0,035.1,028.6,17.8,0002.0,0012.76,0008.30,0007.73
2023-11-17 17:32:00,SystemResetWarning,0831.3,5.00,000.00,027.0,026.6,000.0,035.1,028.6,18.4,0001.3,0012.75,0008.37,0007.78
2023-11-17 17:33:00,SystemResetWarning,0831.4,5.00,000.00,027.1,026.6,000.0,035.2,028.6,19.0,0000.9,0012.30,0008.40,0007.84
2023-11-17 17:34:00,SystemResetWarning,0831.3,5.01,000.00,027.1,026.6,000.0,035.2,028.7,18.7,0000.9,0012.07,0008.34,0007.78
2023-11-17 17:35:00,SystemResetWarning,0831.3,5.00,000.00,027.1,026.6,000.0,035.2,028.7,19.0,0001.2,0012.83,0008.26,0007.71
2023-11-17 17:36:00,SystemResetWarning,0831.4,5.01,000.00,027.1,026.7,000.0,035.2,028.7,18.8,0001.0,0013.17,0008.18,0007.61
2023-11-17 17:37:00,SystemResetWarning,0831.4,5.01,000.00,027.2,026.7,000.0,035.3,028.7,18.3,0000.3,0013.22,0008.07,0007.50
2023-11-17 17:38:00,SystemResetWarning,0831.4,5.00,000.00,027.2,026.7,000.0,035.3,028.8,18.6,0000.3,0013.10,0007.87,0007.35
2023-11-17 17:39:00,SystemResetWarning,0831.3,5.00,000.00,027.2,026.7,000.0,035.3,028.8,18.2,0000.0,0013.49,0007.79,0007.28
2023-11-17 17:40:00,SystemResetWarning,0831.3,4.99,000.00,027.2,026.8,000.0,035.3,028.8,18.0,0000.1,0013.88,0007.66,0007.17
2023-11-17 17:41:00,SystemResetWarning,0831.3,5.00,000.00,027.3,026.8,000.0,035.3,028.8,17.9,-000.1,0013.50,0007.50,0007.03
2023-11-17 17:42:00,SystemResetWarning,0831.3,4.99,000.00,027.3,026.8,000.0,035.4,028.9,17.6,0000.0,0013.19,0007.41,0006.91
2023-11-17 17:43:00,SystemResetWarning,0831.4,5.01,000.00,027.3,026.8,000.0,035.4,028.9,17.4,0000.0,0013.18,0007.24,0006.75
2023-11-17 17:44:00,SystemResetWarning,0831.4,5.00,000.00,027.4,026.9,000.0,035.4,028.9,17.2,0000.0,0012.84,0007.10,0006.63
2023-11-17 17:45:00,SystemResetWarning,0831.3,5.00,000.00,027.4,026.9,000.0,035.4,028.9,17.1,0000.0,0012.84,0007.02,0006.54
2023-11-17 17:46:00,SystemResetWarning,0831.3,5.00,000.00,027.4,026.9,000.0,035.5,029.0,17.4,0000.0,0012.61,0006.99,0006.50
2023-11-17 17:47:00,SystemResetWarning,0831.4,5.00,000.00,027.4,026.9,000.0,035.5,029.0,17.8,0000.0,0011.73,0006.93,0006.46
2023-11-17 17:48:00,SystemResetWarning,0831.4,5.00,000.00,027.5,027.0,000.0,035.5,029.0,18.4,0000.0,0011.72,0006.91,0006.45
2023-11-17 17:49:00,SystemResetWarning,0831.4,5.00,000.00,027.5,027.0,000.0,035.6,029.1,18.5,0000.0,0011.78,0006.94,0006.45
2023-11-17 17:50:00,SystemResetWarning,0831.4,5.00,000.00,027.5,027.0,000.0,035.6,029.1,18.8,0000.0,0011.52,0006.87,0006.38
2023-11-17 17:51:00,SystemResetWarning,0831.3,5.00,000.00,027.5,027.1,000.0,035.6,029.1,18.7,0000.0,0010.66,0006.75,0006.28
2023-11-17 17:52:00,SystemResetWarning,0831.3,5.00,000.00,027.6,027.1,000.0,035.6,029.2,18.4,0000.0,0010.44,0006.69,0006.21
2023-11-17 17:53:00,SystemResetWarning,0831.3,5.00,000.00,027.6,027.1,000.0,035.7,029.3,18.4,0000.0,0010.40,0006.60,0006.15
2023-11-17 17:54:00,SystemResetWarning,0831.4,4.99,000.00,027.7,027.1,000.0,035.7,029.6,18.2,0000.0,0010.28,0006.64,0006.19
2023-11-17 17:55:00,SystemResetWarning,0831.4,4.99,000.00,027.8,027.1,000.0,035.8,029.7,18.1,0000.1,0010.39,0006.75,0006.26
2023-11-17 17:56:00,SystemResetWarning,0831.4,5.00,000.00,027.8,026.6,000.0,035.8,029.7,18.0,0000.5,0010.54,0006.86,0006.35
2023-11-17 17:57:00,SystemResetWarning,0831.4,5.00,000.00,027.8,024.7,000.0,035.7,029.2,18.1,0001.1,0010.48,0006.98,0006.47
2023-11-17 17:58:00,SystemResetWarning,0831.3,5.00,000.00,027.6,022.6,000.0,035.7,028.6,18.3,0001.5,0010.72,0007.13,0006.59
2023-11-17 17:59:00,SystemResetWarning,0831.3,5.01,000.00,027.3,021.2,000.0,035.5,028.0,18.6,0001.7,0010.72,0007.27,0006.72
